When you browse on this site, cookies collect data to enhance your experience and personalize the content and advertising you see.
Visit our Privacy Policy to learn more. By continuing to use the site, you agree to this use of cookies and data.
  • In Austria
  • List of Countries
  • For 7 days
  • Water Temperature
  • Satellite Maps
  • Weather Map
  • News
  • Weather Widgets
  • user-avatar
    Login

    Hourly Weather Opole

    Today, 24 March, Sunday

    Time Temperature Precipitation Wind Pressure Humidity
    00:00 +12°C° 0 mm 4 mps 753 mmHg 78%
    01:00 +10°C° 0 mm 4 mps 754 mmHg 83%
    02:00 +9°C° 0 mm 3 mps 754 mmHg 84%
    03:00 +8°C° 0 mm 3 mps 754 mmHg 85%
    04:00 +7°C° 0 mm 3 mps 754 mmHg 87%
    05:00 +7°C° 0 mm 3 mps 754 mmHg 86%
    06:00 +6°C° 0 mm 2 mps 754 mmHg 86%
    07:00 +6°C° 0 mm 2 mps 754 mmHg 83%
    08:00 +7°C° 0 mm 2 mps 754 mmHg 74%
    09:00 +8°C° 0 mm 2 mps 753 mmHg 65%
    10:00 +9°C° 0 mm 2 mps 753 mmHg 55%
    11:00 +11°C° 0 mm 1 mps 753 mmHg 51%
    12:00 +12°C° 0 mm 1 mps 752 mmHg 46%
    13:00 +14°C° 0 mm 1 mps 752 mmHg 42%
    14:00 +13°C° 0 mm 1 mps 751 mmHg 43%
    15:00 +13°C° 0 mm 1 mps 750 mmHg 44%
    16:00 +13°C° 0 mm 1 mps 750 mmHg 45%
    17:00 +12°C° 0 mm 1 mps 749 mmHg 48%
    18:00 +11°C° 0 mm 1 mps 749 mmHg 51%
    19:00 +11°C° 0 mm 1 mps 749 mmHg 54%
    20:00 +10°C° 0 mm 1 mps 749 mmHg 57%
    21:00 +10°C° 0 mm 1 mps 748 mmHg 60%
    22:00 +10°C° 0 mm 1 mps 748 mmHg 62%
    23:00 +9°C° 0 mm 1 mps 748 mmHg 65%

    Tomorrow, 25 March, Monday

    Time Temperature Precipitation Wind Pressure Humidity
    00:00 +9°C° 0 mm 1 mps 747 mmHg 68%
    01:00 +9°C° 0 mm 1 mps 747 mmHg 70%
    02:00 +7°C° 0 mm 2 mps 746 mmHg 71%
    03:00 +7°C° 0 mm 2 mps 746 mmHg 71%
    04:00 +7°C° 0 mm 3 mps 745 mmHg 72%
    05:00 +5°C° 0 mm 3 mps 745 mmHg 71%
    06:00 +5°C° 0 mm 3 mps 745 mmHg 69%
    07:00 +5°C° 0 mm 3 mps 745 mmHg 68%
    08:00 +6°C° 0.1 mm 4 mps 744 mmHg 64%
    09:00 +7°C° 0.1 mm 5 mps 744 mmHg 59%
    10:00 +8°C° 0.1 mm 5 mps 744 mmHg 55%
    11:00 +8°C° 0.2 mm 5 mps 743 mmHg 51%
    12:00 +9°C° 0.2 mm 6 mps 743 mmHg 48%
    13:00 +9°C° 0.2 mm 6 mps 743 mmHg 45%
    14:00 +8°C° 0.3 mm 6 mps 743 mmHg 51%
    15:00 +7°C° 0.3 mm 6 mps 743 mmHg 57%
    16:00 +5°C° 0.3 mm 7 mps 743 mmHg 64%
    17:00 +4°C° 0 mm 6 mps 744 mmHg 66%
    18:00 +3°C° 0 mm 5 mps 745 mmHg 68%
    19:00 +4°C° 0 mm 4 mps 745 mmHg 70%
    20:00 +3°C° 0 mm 4 mps 746 mmHg 72%
    21:00 +3°C° 0 mm 4 mps 747 mmHg 75%
    22:00 +3°C° 0 mm 4 mps 747 mmHg 77%
    23:00 +1°C° 0 mm 4 mps 748 mmHg 80%

    Day after tomorrow, 26 March, Tuesday

    Time Temperature Precipitation Wind Pressure Humidity
    00:00 +1°C° 0 mm 4 mps 749 mmHg 84%
    01:00 +1°C° 0 mm 4 mps 749 mmHg 87%
    02:00 0°C° 0 mm 4 mps 750 mmHg 90%
    03:00 +1°C° 0 mm 3 mps 750 mmHg 93%
    04:00 0°C° 0 mm 3 mps 750 mmHg 95%
    05:00 0°C° 0 mm 3 mps 751 mmHg 94%
    06:00 +1°C° 0 mm 3 mps 751 mmHg 92%
    07:00 0°C° 0 mm 4 mps 752 mmHg 90%
    08:00 +1°C° 0 mm 4 mps 752 mmHg 82%
    09:00 +4°C° 0 mm 4 mps 752 mmHg 74%
    10:00 +5°C° 0 mm 5 mps 752 mmHg 65%
    11:00 +6°C° 0 mm 5 mps 752 mmHg 59%
    12:00 +8°C° 0 mm 6 mps 751 mmHg 52%
    13:00 +9°C° 0 mm 7 mps 751 mmHg 46%
    14:00 +8°C° 0 mm 7 mps 751 mmHg 48%
    15:00 +7°C° 0 mm 8 mps 751 mmHg 50%
    16:00 +6°C° 0 mm 8 mps 750 mmHg 52%
    17:00 +5°C° 0.1 mm 8 mps 751 mmHg 57%
    18:00 +4°C° 0.1 mm 7 mps 751 mmHg 62%
    19:00 +3°C° 0.1 mm 6 mps 752 mmHg 67%
    20:00 +3°C° 0.1 mm 6 mps 752 mmHg 69%
    21:00 +3°C° 0.1 mm 6 mps 753 mmHg 72%
    22:00 +2°C° 0.1 mm 5 mps 753 mmHg 75%
    23:00 +2°C° 0.1 mm 5 mps 753 mmHg 79%

    27 March, Wednesday

    Time Temperature Precipitation Wind Pressure Humidity
    00:00 +1°C° 0.1 mm 4 mps 754 mmHg 82%
    01:00 +2°C° 0.1 mm 3 mps 754 mmHg 86%
    02:00 +1°C° 0 mm 3 mps 754 mmHg 88%
    03:00 +1°C° 0 mm 3 mps 754 mmHg 90%
    04:00 +2°C° 0 mm 2 mps 754 mmHg 92%
    05:00 +2°C° 0 mm 2 mps 755 mmHg 90%
    06:00 +2°C° 0 mm 2 mps 755 mmHg 89%
    07:00 +3°C° 0 mm 2 mps 755 mmHg 87%
    08:00 +4°C° 0 mm 2 mps 755 mmHg 79%
    09:00 +5°C° 0 mm 3 mps 756 mmHg 71%
    10:00 +7°C° 0 mm 3 mps 756 mmHg 63%
    11:00 +8°C° 0 mm 3 mps 756 mmHg 59%
    12:00 +9°C° 0 mm 3 mps 756 mmHg 54%
    13:00 +10°C° 0 mm 4 mps 756 mmHg 49%
    14:00 +10°C° 0 mm 3 mps 756 mmHg 53%
    15:00 +10°C° 0 mm 3 mps 756 mmHg 56%
    16:00 +10°C° 0 mm 3 mps 755 mmHg 59%
    17:00 +9°C° 0.1 mm 3 mps 756 mmHg 64%
    18:00 +8°C° 0.1 mm 2 mps 756 mmHg 70%
    19:00 +7°C° 0.1 mm 2 mps 756 mmHg 75%
    20:00 +6°C° 0 mm 2 mps 757 mmHg 78%
    21:00 +7°C° 0 mm 1 mps 757 mmHg 80%
    22:00 +6°C° 0 mm 1 mps 757 mmHg 83%
    23:00 +6°C° 0 mm 1 mps 757 mmHg 83%

    28 March, Thursday

    Time Temperature Precipitation Wind Pressure Humidity
    00:00 +6°C° 0 mm 1 mps 757 mmHg 84%
    01:00 +6°C° 0 mm 1 mps 757 mmHg 84%
    02:00 +6°C° 0 mm 1 mps 757 mmHg 84%
    03:00 +6°C° 0 mm 1 mps 757 mmHg 84%
    04:00 +6°C° 0 mm 1 mps 758 mmHg 84%
    05:00 +6°C° 0 mm 1 mps 758 mmHg 83%
    06:00 +6°C° 0 mm 1 mps 758 mmHg 82%
    07:00 +7°C° 0 mm 1 mps 758 mmHg 80%
    08:00 +8°C° 0 mm 1 mps 758 mmHg 75%
    09:00 +10°C° 0 mm 1 mps 758 mmHg 70%
    10:00 +11°C° 0 mm 1 mps 759 mmHg 65%
    11:00 +12°C° 0.1 mm 1 mps 759 mmHg 61%
    12:00 +13°C° 0.1 mm 1 mps 759 mmHg 57%
    13:00 +14°C° 0.1 mm 1 mps 759 mmHg 52%
    14:00 +13°C° 0.1 mm 0 mps 758 mmHg 53%
    15:00 +13°C° 0.1 mm 0 mps 758 mmHg 53%
    16:00 +12°C° 0.1 mm 0 mps 758 mmHg 53%
    17:00 +11°C° 0.1 mm 0 mps 758 mmHg 57%
    18:00 +11°C° 0.1 mm 0 mps 758 mmHg 62%
    19:00 +11°C° 0.1 mm 1 mps 758 mmHg 66%
    20:00 +10°C° 0 mm 1 mps 759 mmHg 69%
    21:00 +9°C° 0 mm 1 mps 759 mmHg 72%
    22:00 +8°C° 0 mm 1 mps 759 mmHg 75%
    23:00 +8°C° 0 mm 1 mps 759 mmHg 76%

    29 March, Friday

    Time Temperature Precipitation Wind Pressure Humidity
    00:00 +7°C° 0 mm 1 mps 759 mmHg 77%
    01:00 +7°C° 0 mm 1 mps 759 mmHg 78%
    02:00 +7°C° 0 mm 1 mps 759 mmHg 79%
    03:00 +6°C° 0 mm 1 mps 759 mmHg 80%
    04:00 +6°C° 0 mm 1 mps 759 mmHg 82%
    05:00 +6°C° 0 mm 1 mps 759 mmHg 80%
    06:00 +7°C° 0 mm 1 mps 760 mmHg 78%
    07:00 +7°C° 0 mm 1 mps 760 mmHg 76%
    08:00 +9°C° 0 mm 1 mps 760 mmHg 68%
    09:00 +11°C° 0 mm 1 mps 760 mmHg 60%
    10:00 +13°C° 0 mm 1 mps 760 mmHg 52%
    11:00 +14°C° 0 mm 1 mps 759 mmHg 48%
    12:00 +15°C° 0 mm 1 mps 759 mmHg 43%
    13:00 +16°C° 0 mm 1 mps 759 mmHg 39%
    14:00 +15°C° 0 mm 1 mps 758 mmHg 38%
    15:00 +14°C° 0 mm 0 mps 758 mmHg 38%
    16:00 +14°C° 0 mm 0 mps 757 mmHg 37%
    17:00 +13°C° 0 mm 0 mps 757 mmHg 42%
    18:00 +11°C° 0 mm 0 mps 757 mmHg 46%
    19:00 +10°C° 0 mm 0 mps 757 mmHg 50%
    20:00 +10°C° 0 mm 1 mps 757 mmHg 52%
    21:00 +10°C° 0 mm 1 mps 757 mmHg 54%
    22:00 +9°C° 0 mm 1 mps 757 mmHg 56%
    23:00 +8°C° 0 mm 1 mps 757 mmHg 59%
    Show more